Showing default

OPS 9328 (IDSCS 15), 2655

Orbit data source: Space-Track

OPS 9328 (IDSCS 15), 2655 is a payload satellite owned by USAF SSD (US) in GEO that was launched on Wed, 18 Jan 1967 UTC via a TITAN IIIC launch vehicle from the Air Force Eastern Test Range (AFETR). Payload-class satellites include a variety of spacecraft equipped with specific instruments for various scientific and technological missions. These include communications satellites like Starlink; space stations such as the ISS; scientific satellites like the Hubble; Earth observation satellites from companies like Planet Labs, Umbra, and HawkEye 360; GPS; miniature CubeSats for education and research; and military/defense satellites.

Not visible in the next 10 days
Identifier
2655, 1967-003H
Orbit
GEO
Country
Flag of USUS
Related business
Manufacturer
Philco-Ford WDL
Mission
Non-operational spacecraft
Bus & Motor
IDCSP, Unknown motor
Mass
45 kg wet, 45 kg dry
Launch date (UTC)
1967-01-18 (59 years ago)
Launch vehicle
TITAN IIIC
Launch site
Air Force Eastern Test Range (AFETR)
Object type
Payload
Rocket body
Debris
Shape & HBR
Unknown
Radar Cross Section
Medium (>0.1 m² and <1 m²)

Expand to show TLE details & history
Last TLE update: 6 days ago

TLE from 6 days ago
0 OPS 9328 (IDSCS 15)
1 02655U 67003H   26155.26384414 -.00000114  00000-0  00000-0 0  9992
2 02655   8.0364  47.9764 0073500  38.2397 164.5711  1.07230572139066
Epoch: 2026-06-04T06:19Z
TLE epoch observation values (Epoch: 2026-06-04T06:19:56.133Z)
Latitude
-3.15717°
Longitude
-96.8837°
Altitude
34,229.226 km
Speed
3.122 km/s
True Right ascension
16h 43m 14s
True Declination
-3° 09' 14"
Sunlit
Object was in daylight at epoch
Visualization orbit readout
Latitude
Unknown
Longitude
Unknown
Altitude
Unknown
Speed
Unknown
Apparent Right ascension
Unknown
Apparent Declination
Unknown
Sunlit
N/A
Visualization observer readout
Local Sidereal Time
07:39:58
Azimuth
Unknown
Elevation
Unknown
Doppler factor
Unknown
Orbital elements
Apogee altitude
34,239.517 km
Perigee altitude
33,646.794 km
Semi-major axis
40,321.293 km
Eccentricity
0.00735
Inclination
8.0364°
RAAN
47.9764°
Arg. of periapsis
38.2397°
True anomaly
164.79321°
Mean anomaly
164.5711°
Eccentric anomaly
164.68235°
Mean motion
0.26807 °/min
Orbital period
1,342.95 mins
BSTAR
0
Loading maneuver chart data...
Computing Atmospheric mass density...
Loading historical data...
Loading historical data...
Loading historical data...
Loading historical data...
Loading historical data...
Loading historical data...
Loading historical data...

Documentation

Showing up to 5 results
|